1534464001.18,1454,20.56,74336.3,2.73,-10.57,-11.15,0,*48
1534464002.38,1455,20.56,74338.3,2.71,-10.85,-11.41,0,*45
1534464003.61,1456,20.56,74338.5,2.73,-10.85,-11.45,0,*40
1534464004.86,1457,20.56,74336.0,2.73,-10.75,-11.41,0,*4A
1534464006.11,1458,20.56,74336.8,2.73,-10.89,-11.55,0,*43
1534464007.39,1459,20.56,74332.0,2.73,-10.75,-11.29,0,*4A
1534464008.66,1460,20.56,74332.5,2.73,-10.71,-11.33,0,*4F
1534464009.94,1461,20.56,74336.8,2.73,-10.63,-11.29,0,*46
1534464011.19,1462,20.56,74336.0,2.73,-10.85,-11.55,0,*46
1534464012.38,1463,20.56,74338.3,2.71,-10.89,-11.45,0,*48
1534464013.63,1464,20.56,74336.0,2.73,-10.85,-11.59,0,*4C
1534464014.88,1465,20.56,74334.3,2.71,-10.63,-11.29,0,*40
1534464016.11,1466,20.56,74332.5,2.73,-10.49,-11.15,0,*46
1534464017.36,1467,20.56,74332.3,2.71,-10.63,-11.29,0,*42
1534464018.64,1468,20.56,74336.5,2.73,-10.71,-11.29,0,*4C
1534464019.86,1469,20.56,74332.5,2.71,-10.75,-11.41,0,*45
1534464021.1,1470,20.56,74334.3,2.71,-10.75,-11.33,0,*48
1534464022.33,1471,20.56,74336.0,2.73,-10.27,-10.97,0,*43
1534464023.56,1472,20.56,74334.5,2.73,-10.35,-11.11,0,*4C
1534464024.79,1473,20.56,74328.3,2.73,-10.35,-11.01,0,*4C
1534464026.04,1474,20.56,74332.0,2.73,-10.75,-11.41,0,*4B
1534464027.27,1475,20.56,74336.0,2.73,-10.85,-11.41,0,*45
1534464028.55,1476,20.56,74332.8,2.73,-10.71,-11.29,0,*43
1534464029.8,1477,20.56,74332.5,2.73,-10.57,-11.29,0,*46
1534464031.03,1478,20.56,74336.5,2.73,-10.57,-11.15,0,*46
1534464032.31,1479,20.56,74332.0,2.73,-10.63,-11.29,0,*4F
1534464033.5,1480,20.56,74330.3,2.75,-10.57,-11.23,0,*42
1534464034.76,1481,20.56,74328.3,2.73,-10.63,-11.23,0,*42
1534464035.98,1482,20.56,74334.0,2.73,-10.57,-11.23,0,*46
1534464037.21,1483,20.56,74334.8,2.73,-10.49,-11.15,0,*4D
1534464038.46,1484,20.56,74336.0,2.73,-10.63,-11.23,0,*47
1534464039.73,1485,20.56,74336.5,2.73,-10.71,-11.33,0,*44
1534464040.96,1486,20.56,74332.3,2.73,-10.45,-11.11,0,*40
1534464042.23,1487,20.56,74332.0,2.73,-10.71,-11.29,0,*4D
1534464043.52,1488,20.56,74332.3,2.73,-10.71,-11.29,0,*42
1534464044.79,1489,20.56,74330.8,2.73,-10.71,-11.33,0,*48
1534464046.01,1490,20.56,74332.8,2.73,-10.45,-11.23,0,*46
1534464047.29,1491,20.56,74332.5,2.73,-10.63,-11.29,0,*49
1534464048.54,1492,20.56,74334.0,2.73,-10.57,-11.29,0,*4D
1534464049.73,1493,20.56,74330.0,2.75,-10.53,-11.19,0,*4D
1534464050.99,1494,20.56,74328.8,2.73,-10.63,-11.23,0,*46
1534464052.21,1495,20.56,74332.5,2.73,-10.45,-11.15,0,*46
1534464053.41,1496,20.56,74332.5,2.71,-10.57,-11.23,0,*41
1534464054.66,1497,20.56,74334.5,2.73,-10.75,-11.41,0,*46
1534464055.93,1498,20.56,74334.0,2.73,-10.75,-11.33,0,*4C
1534464057.18,1499,20.56,74334.0,2.71,-10.63,-11.29,0,*43
1534464058.46,1500,20.56,74332.5,2.73,-10.63,-11.29,0,*40
1534464059.74,1501,20.56,74334.8,2.73,-10.71,-11.29,0,*42
1534464061.02,1502,20.56,74332.8,2.73,-10.63,-11.29,0,*42
1534464062.24,1503,20.56,74334.3,2.73,-10.57,-11.23,0,*4E
1534464063.52,1504,20.56,74332.5,2.73,-10.71,-11.33,0,*4C
1534464064.74,1505,20.56,74332.0,2.73,-10.49,-11.15,0,*42
1534464066.0,1506,20.56,74332.5,2.75,-10.67,-11.29,0,*44
1534464067.24,1507,20.56,74334.5,2.75,-10.79,-11.37,0,*45
1534464068.52,1508,20.56,74334.8,2.73,-10.71,-11.29,0,*4B
1534464069.75,1509,20.56,74330.5,2.73,-10.45,-10.97,0,*49
1534464070.97,1510,20.56,74336.0,2.71,-10.57,-11.29,0,*44
1534464072.24,1511,20.56,74334.3,2.73,-10.75,-11.33,0,*4C
1534464073.5,1512,20.56,74332.0,2.73,-10.75,-11.41,0,*4A
1534464074.75,1513,20.56,74332.0,2.71,-10.71,-11.29,0,*43
1534464075.98,1514,20.56,74336.3,2.73,-10.35,-10.97,0,*42
1534464077.21,1515,20.56,74332.5,2.73,-10.19,-10.97,0,*4D
1534464078.44,1516,20.56,74334.3,2.73,-10.27,-10.97,0,*43
1534464079.67,1517,20.56,74330.5,2.73,-10.45,-11.01,0,*48
1534464080.9,1518,20.56,74334.3,2.75,-10.41,-10.97,0,*4B
1534464082.15,1519,20.56,74334.5,2.75,-10.41,-11.07,0,*42
1534464083.36,1520,20.56,74334.0,2.75,-10.31,-10.97,0,*47
1534464084.59,1521,20.56,74330.0,2.75,-10.67,-11.23,0,*4B
1534464085.79,1522,20.56,74328.8,2.75,-10.31,-10.93,0,*41
1534464086.98,1523,20.56,74328.8,2.75,-10.45,-11.11,0,*48
1534464088.18,1524,20.56,74328.3,2.75,-10.27,-10.85,0,*47
1534464089.43,1525,20.56,74330.0,2.75,-10.41,-11.07,0,*4D
1534464090.65,1526,20.56,74328.5,2.79,-10.53,-11.07,0,*41
1534464091.86,1527,20.56,74332.5,2.75,-10.45,-10.97,0,*43
1534464093.06,1528,20.56,74330.8,2.79,-10.35,-10.93,0,*43
1534464094.25,1529,20.56,74330.3,2.75,-10.53,-11.11,0,*45
1534464095.45,1530,20.56,74328.0,2.79,-10.49,-11.15,0,*4E
1534464096.64,1531,20.56,74330.8,2.75,-10.45,-11.11,0,*4B
1534464097.85,1532,20.56,74334.3,2.75,-10.15,-10.57,0,*4E
1534464099.08,1533,20.56,74330.3,2.75,-10.41,-10.97,0,*42
1534464100.31,1534,20.56,74332.8,2.79,-10.67,-11.19,0,*4A
1534464101.53,1535,20.56,74332.0,2.75,-10.67,-11.19,0,*47
1534464102.76,1536,20.56,74330.8,2.79,-10.53,-11.07,0,*40
1534464103.98,1537,20.56,74328.5,2.79,-10.63,-11.15,0,*41
1534464105.21,1538,20.56,74330.8,2.79,-10.63,-11.19,0,*42
1534464106.43,1539,20.56,74328.3,2.75,-10.71,-11.23,0,*45
1534464107.66,1540,20.56,74328.8,2.79,-10.67,-11.19,0,*49
1534464108.88,1541,20.56,74330.8,2.75,-10.71,-11.23,0,*4A
1534464110.11,1542,20.56,74330.0,2.75,-10.71,-11.23,0,*49
1534464111.36,1543,20.56,74332.5,2.75,-10.79,-11.29,0,*4A
1534464112.55,1544,20.56,74330.5,2.75,-10.53,-11.15,0,*4A
1534464113.75,1545,20.56,74328.3,2.75,-10.31,-10.85,0,*47
1534464114.97,1546,20.56,74326.8,2.79,-10.53,-11.07,0,*47
1534464116.2,1547,20.56,74328.0,2.75,-10.67,-11.23,0,*4B
1534464117.43,1548,20.56,74328.0,2.75,-10.67,-11.19,0,*4D
1534464118.66,1549,20.56,74328.8,2.75,-10.67,-11.19,0,*4C
1534464119.91,1550,20.56,74328.5,2.75,-10.79,-11.29,0,*48
1534464121.13,1551,20.56,74328.5,2.79,-10.79,-11.23,0,*4F
1534464122.35,1552,20.56,74326.3,2.75,-10.85,-11.37,0,*46
1534464123.58,1553,20.56,74332.0,2.75,-10.67,-11.19,0,*47
1534464124.81,1554,20.56,74330.3,2.75,-10.41,-10.97,0,*43
1534464126.03,1555,20.56,74330.0,2.79,-10.53,-11.07,0,*45
1534464127.23,1556,20.56,74330.3,2.75,-10.57,-11.11,0,*49
1534464128.46,1557,20.56,74328.3,2.79,-10.67,-11.15,0,*43
1534464129.68,1558,20.56,74330.0,2.75,-10.71,-11.19,0,*4B
1534464130.88,1559,20.56,74330.3,2.75,-10.45,-10.97,0,*4A
1534464132.12,1560,20.56,74328.5,2.75,-10.15,-10.67,0,*4A
1534464133.32,1561,20.56,74330.5,2.79,-10.27,-10.93,0,*4D
1534464134.51,1562,20.56,74332.5,2.79,-10.49,-10.93,0,*46
1534464135.74,1563,20.56,74330.3,2.79,-10.49,-11.07,0,*4B
1534464136.97,1564,20.56,74330.3,2.75,-10.41,-10.97,0,*40
1534464138.2,1565,20.56,74328.8,2.75,-10.57,-11.07,0,*4E
1534464139.42,1566,20.56,74330.5,2.79,-10.63,-11.15,0,*45
1534464140.67,1567,20.56,74330.8,2.79,-10.41,-11.07,0,*47
1534464141.9,1568,20.56,74330.3,2.79,-10.63,-11.15,0,*4B
1534464143.09,1569,20.56,74330.0,2.75,-10.53,-11.19,0,*49
1534464144.32,1570,20.56,74330.8,2.79,-10.67,-11.19,0,*4A
1534464145.54,1571,20.56,74328.0,2.79,-10.71,-11.15,0,*40
1534464146.77,1572,20.56,74328.5,2.79,-10.49,-11.07,0,*4B
1534464147.97,1573,20.56,74330.8,2.75,-10.57,-11.11,0,*4E
1534464149.17,1574,20.56,74330.0,2.75,-10.53,-10.97,0,*42
1534464150.39,1575,20.56,74330.5,2.79,-10.41,-11.01,0,*42
1534464151.62,1576,20.56,74328.5,2.79,-10.63,-11.19,0,*48
1534464152.85,1577,20.56,74330.8,2.75,-10.67,-11.19,0,*41
1534464154.07,1578,20.56,74328.3,2.75,-10.67,-11.19,0,*4E
1534464155.27,1579,20.56,74330.5,2.75,-10.27,-10.85,0,*4F
1534464156.47,1580,20.56,74332.0,2.79,-10.23,-10.89,0,*4D
1534464157.67,1581,20.56,74328.0,2.79,-10.27,-10.93,0,*43
1534464158.9,1582,20.56,74330.0,2.79,-10.35,-11.07,0,*4F
1534464160.12,1583,20.56,74328.3,2.79,-10.41,-10.89,0,*4A
1534464161.32,1584,20.56,74328.5,2.79,-10.27,-10.89,0,*4D
1534464162.58,1585,20.56,74330.0,2.79,-10.63,-11.07,0,*4B
1534464163.8,1586,20.56,74332.3,2.79,-10.63,-11.15,0,*4B
1534464165.03,1587,20.56,74330.8,2.79,-10.63,-11.19,0,*46
1534464166.25,1588,20.56,74330.8,2.79,-10.79,-11.19,0,*42
1534464167.47,1589,20.56,74330.8,2.79,-10.63,-11.19,0,*48
1534464168.72,1590,20.56,74330.3,2.81,-10.49,-11.07,0,*40
1534464169.92,1591,20.56,74332.0,2.79,-10.27,-10.93,0,*42
1534464171.14,1592,20.56,74330.0,2.79,-10.53,-11.07,0,*4E
1534464172.39,1593,20.56,74328.3,2.79,-10.79,-11.33,0,*40
1534464173.61,1594,20.56,74330.3,2.79,-10.41,-11.01,0,*4D
1534464174.83,1595,20.56,74332.0,2.79,-10.53,-11.07,0,*49
1534464176.03,1596,20.56,74328.0,2.79,-10.49,-11.01,0,*47
1534464177.23,1597,20.56,74326.8,2.79,-10.35,-11.01,0,*4D
1534464178.46,1598,20.56,74328.3,2.79,-10.41,-11.01,0,*41
1534464179.66,1599,20.56,74334.0,2.79,-10.27,-10.89,0,*41
1534464180.88,1600,20.56,74330.5,2.79,-10.41,-10.93,0,*49
1534464182.09,1601,20.56,74326.3,2.79,-10.35,-10.93,0,*4B
1534464183.29,1602,20.56,74330.0,2.79,-10.35,-10.93,0,*48
1534464184.54,1603,20.56,74328.0,2.81,-10.49,-11.07,0,*49
1534464185.79,1604,20.56,74328.8,2.81,-10.49,-11.07,0,*4E
1534464187.04,1605,20.56,74332.8,2.81,-10.53,-11.07,0,*44
1534464188.24,1606,20.56,74332.5,2.83,-10.49,-10.97,0,*46
1534464189.47,1607,20.56,74328.0,2.83,-10.19,-10.71,0,*4A
1534464190.69,1608,20.56,74330.3,2.81,-10.53,-11.15,0,*4A
1534464191.91,1609,20.56,74330.8,2.81,-10.49,-11.15,0,*40
1534464193.13,1610,20.56,74328.3,2.81,-10.49,-11.01,0,*4D
1534464194.39,1611,20.56,74334.0,2.81,-10.23,-10.79,0,*4E
1534464195.64,1612,20.56,74330.8,2.81,-10.41,-10.93,0,*4D
1534464196.92,1613,20.56,74326.8,2.81,-10.41,-11.07,0,*40
1534464198.2,1614,20.56,74328.5,2.81,-10.63,-11.07,0,*47
1534464199.45,1615,20.56,74328.0,2.81,-10.63,-11.15,0,*45
1534464200.68,1616,20.56,74330.3,2.81,-10.49,-11.01,0,*4B
1534464201.93,1617,20.56,74330.3,2.81,-10.63,-11.15,0,*47
1534464203.15,1618,20.56,74328.3,2.79,-10.75,-11.19,0,*44
1534464204.38,1619,20.56,74326.0,2.79,-10.75,-11.23,0,*4C
1534464205.57,1620,20.56,74328.5,2.79,-10.49,-11.01,0,*49
1534464206.83,1621,20.56,74330.3,2.81,-10.41,-10.93,0,*4D
1534464208.02,1622,20.56,74330.8,2.79,-10.49,-11.01,0,*4B
1534464209.22,1623,20.56,74330.5,2.79,-10.49,-11.01,0,*4A
1534464210.43,1624,20.56,74330.8,2.79,-10.35,-10.89,0,*47
1534464211.65,1625,20.56,74330.0,2.75,-10.27,-10.79,0,*46
1534464212.9,1626,20.56,74332.8,2.81,-10.41,-11.01,0,*40
1534464214.16,1627,20.56,74330.3,2.81,-10.49,-11.07,0,*4F
1534464215.41,1628,20.56,74328.3,2.81,-10.49,-11.07,0,*40
1534464216.66,1629,20.56,74334.3,2.81,-10.27,-10.75,0,*4D
1534464217.92,1630,20.56,74330.8,2.81,-10.23,-10.75,0,*41
1534464219.14,1631,20.56,74328.5,2.81,-10.27,-10.93,0,*4C
1534464220.4,1632,20.56,74332.8,2.81,-10.67,-11.15,0,*44
1534464221.65,1633,20.56,74334.3,2.81,-10.63,-11.15,0,*41
1534464222.9,1634,20.56,74332.5,2.81,-10.41,-11.01,0,*43
1534464224.1,1635,20.56,74328.0,2.79,-10.53,-11.15,0,*43
1534464225.32,1636,20.56,74330.0,2.79,-10.67,-11.15,0,*47
1534464226.53,1637,20.56,74328.0,2.79,-10.35,-10.93,0,*4E
1534464227.73,1638,20.56,74328.8,2.79,-10.35,-10.93,0,*41
1534464228.99,1639,20.56,74330.8,2.81,-10.67,-11.19,0,*43
1534464230.24,1640,20.56,74330.5,2.81,-10.75,-11.23,0,*47
1534464231.49,1641,20.56,74328.8,2.81,-10.63,-11.15,0,*44
1534464232.71,1642,20.56,74332.3,2.79,-10.49,-11.07,0,*4B
1534464233.91,1643,20.56,74328.8,2.75,-10.53,-11.01,0,*4B
1534464235.11,1644,20.56,74328.3,2.79,-10.23,-10.89,0,*46
1534464236.33,1645,20.56,74326.5,2.79,-10.49,-11.07,0,*4C
1534464237.53,1646,20.56,74328.5,2.79,-10.27,-10.93,0,*4B
1534464238.76,1647,20.56,74330.5,2.79,-10.63,-11.19,0,*49
1534464239.98,1648,20.56,74328.8,2.79,-10.41,-11.01,0,*4F
1534464241.21,1649,20.56,74330.8,2.79,-10.41,-11.01,0,*4E
1534464242.43,1650,20.56,74330.3,2.79,-10.41,-10.93,0,*4C
1534464243.69,1651,20.56,74328.0,2.79,-10.41,-11.07,0,*41
1534464244.91,1652,20.56,74328.5,2.79,-10.41,-11.01,0,*44
1534464246.12,1653,20.56,74330.3,2.79,-10.35,-10.93,0,*4C
1534464247.37,1654,20.56,74332.3,2.81,-10.41,-10.93,0,*4F
1534464248.62,1655,20.56,74328.5,2.81,-10.27,-10.79,0,*4A
1534464249.84,1656,20.56,74330.0,2.79,-10.53,-11.07,0,*45
1534464251.07,1657,20.56,74330.0,2.79,-10.41,-11.01,0,*41
1534464252.29,1658,20.56,74330.3,2.79,-10.41,-11.01,0,*4E
1534464253.55,1659,20.56,74330.8,2.79,-10.63,-11.07,0,*49
1534464254.77,1660,20.56,74332.0,2.79,-10.63,-11.19,0,*4C
1534464256.0,1661,20.56,74330.5,2.79,-10.41,-11.01,0,*44
1534464257.2,1662,20.56,74330.5,2.79,-10.27,-10.93,0,*4D
1534464258.4,1663,20.56,74328.8,2.75,-10.57,-11.11,0,*4C
1534464259.62,1664,20.56,74330.5,2.79,-10.53,-11.07,0,*44
1534464260.84,1665,20.56,74330.3,2.75,-10.45,-11.07,0,*4E
1534464262.04,1666,20.56,74330.3,2.79,-10.49,-11.01,0,*4B
1534464263.24,1667,20.56,74326.0,2.79,-10.27,-10.89,0,*43
1534464264.46,1668,20.56,74328.3,2.81,-10.05,-10.53,0,*4C
1534464265.69,1669,20.56,74330.8,2.79,-10.41,-11.01,0,*4C
1534464266.91,1670,20.56,74330.5,2.79,-10.53,-11.07,0,*41
1534464268.13,1671,20.56,74330.3,2.79,-10.67,-11.19,0,*48
1534464269.36,1672,20.56,74328.0,2.79,-10.63,-11.19,0,*4F
1534464270.56,1673,20.56,74330.3,2.75,-10.57,-11.19,0,*45
1534464271.76,1674,20.56,74328.3,2.75,-10.57,-11.11,0,*4A
1534464272.95,1675,20.56,74330.8,2.79,-10.49,-11.01,0,*49
1534464274.15,1676,20.56,74328.5,2.79,-10.53,-11.01,0,*41
1534464275.38,1677,20.56,74330.0,2.75,-10.67,-11.19,0,*42
1534464276.58,1678,20.56,74328.8,2.75,-10.31,-10.93,0,*4D
1534464277.81,1679,20.56,74332.0,2.75,-10.15,-10.67,0,*41
1534464279.01,1680,20.56,74328.5,2.75,-10.31,-10.85,0,*4D
1534464280.21,1681,20.56,74328.5,2.79,-10.35,-10.93,0,*43
1534464281.4,1682,20.56,74330.0,2.75,-10.45,-11.11,0,*40
1534464282.6,1683,20.56,74330.8,2.75,-10.31,-10.85,0,*4E
1534464283.79,1684,20.56,74332.0,2.75,-10.09,-10.53,0,*49
1534464284.99,1685,20.56,74330.0,2.79,-10.23,-10.89,0,*4B
1534464286.24,1686,20.56,74328.3,2.79,-10.41,-11.07,0,*4B
1534464287.44,1687,20.56,74328.5,2.75,-10.27,-10.93,0,*4A
1534464288.67,1688,20.56,74328.8,2.79,-10.41,-10.93,0,*49
1534464289.9,1689,20.56,74332.0,2.75,-10.67,-11.11,0,*4B
1534464291.1,1690,20.56,74330.5,2.75,-10.27,-10.89,0,*47
1534464292.29,1691,20.56,74328.8,2.79,-10.05,-10.53,0,*4D
1534464293.49,1692,20.56,74330.8,2.79,-10.27,-10.93,0,*42
1534464294.72,1693,20.56,74330.0,2.79,-10.23,-10.79,0,*43
1534464295.92,1694,20.56,74330.8,2.79,-10.35,-10.93,0,*47
1534464297.15,1695,20.56,74328.3,2.75,-10.15,-10.67,0,*43
1534464298.41,1696,20.56,74326.3,2.81,-10.23,-10.75,0,*4D
1534464299.63,1697,20.56,74326.3,2.79,-10.41,-10.93,0,*47
1534464300.82,1698,20.56,74328.3,2.79,-10.05,-10.53,0,*44
1534464302.02,1699,20.56,74330.3,2.79,-10.49,-11.01,0,*4B
1534464303.25,1700,20.56,74330.0,2.79,-10.27,-10.79,0,*4C
1534464304.47,1701,20.56,74330.0,2.79,-10.05,-10.63,0,*46
1534464305.7,1702,20.56,74330.8,2.79,-10.19,-10.75,0,*4F
1534464306.93,1703,20.56,74328.0,2.79,-10.19,-10.79,0,*42
1534464308.15,1704,20.56,74332.0,2.79,-10.23,-10.79,0,*4C
1534464309.38,1705,20.56,74330.8,2.79,-10.23,-10.79,0,*4D
1534464310.56,1706,20.56,74330.8,2.79,-9.97,-10.53,0,*71
1534464311.78,1707,20.56,74330.8,2.81,-10.05,-10.53,0,*44
1534464313.04,1708,20.56,74328.5,2.81,-10.19,-10.79,0,*4E
1534464314.29,1709,20.56,74328.8,2.81,-10.09,-10.63,0,*45
1534464315.53,1710,20.56,74328.8,2.81,-9.97,-10.67,0,*76
1534464316.76,1711,20.56,74330.8,2.81,-10.27,-10.93,0,*4F
1534464318.01,1712,20.56,74330.0,2.81,-10.23,-10.75,0,*40
1534464319.27,1713,20.56,74330.5,2.81,-10.23,-10.67,0,*42
1534464320.52,1714,20.56,74330.0,2.81,-10.41,-11.01,0,*40
1534464321.77,1715,20.56,74330.3,2.81,-10.09,-10.67,0,*4C
1534464323.0,1716,20.56,74330.5,2.81,-10.35,-10.93,0,*4B
1534464324.26,1717,20.56,74328.5,2.81,-10.41,-10.89,0,*42
1534464325.48,1718,20.56,74328.0,2.83,-10.19,-10.71,0,*45
1534464326.68,1719,20.56,74330.0,2.83,-10.19,-10.85,0,*4F
1534464327.86,1720,20.56,74330.8,2.83,-10.23,-10.85,0,*4C
1534464329.15,1721,20.56,74330.0,2.81,-10.41,-11.07,0,*40
1534464330.39,1722,20.56,74330.5,2.81,-10.09,-10.63,0,*4C
1534464331.64,1723,20.56,74326.5,2.81,-10.09,-10.67,0,*49
1534464332.89,1724,20.56,74330.0,2.81,-10.49,-11.07,0,*4D
1534464334.1,1725,20.56,74330.0,2.79,-10.35,-10.89,0,*47
1534464335.35,1726,20.56,74330.0,2.81,-10.23,-10.75,0,*47
1534464336.58,1727,20.56,74328.8,2.81,-10.27,-10.89,0,*41
1534464337.81,1728,20.56,74326.8,2.81,-10.35,-10.93,0,*46
1534464339.04,1729,20.56,74328.8,2.81,-10.35,-10.93,0,*47
1534464340.32,1730,20.56,74328.3,2.81,-10.41,-11.07,0,*40
1534464341.54,1731,20.56,74328.0,2.79,-10.53,-11.07,0,*45
1534464342.74,1732,20.56,74330.0,2.79,-10.35,-10.89,0,*41
1534464343.96,1733,20.56,74328.5,2.79,-9.93,-10.41,0,*70
1534464345.18,1734,20.56,74328.3,2.79,-10.05,-10.75,0,*47
1534464346.44,1735,20.56,74328.8,2.81,-10.19,-10.75,0,*4C
1534464347.69,1736,20.56,74328.3,2.81,-10.19,-10.79,0,*43
1534464348.91,1737,20.56,74328.8,2.83,-10.53,-11.07,0,*46
1534464350.13,1738,20.56,74330.8,2.81,-10.53,-11.15,0,*48
1534464351.36,1739,20.56,74328.0,2.81,-10.23,-10.89,0,*4A
1534464352.56,1740,20.56,74326.3,2.83,-10.31,-10.97,0,*4A
1534464353.8,1741,20.56,74328.8,2.81,-10.53,-11.07,0,*45
1534464355.03,1742,20.56,74334.3,2.79,-10.63,-11.15,0,*41
1534464356.26,1743,20.56,74330.3,2.79,-10.41,-11.01,0,*45
1534464357.45,1744,20.56,74328.8,2.79,-9.71,-10.09,0,*70
1534464358.67,1745,20.56,74326.3,2.79,-10.05,-10.63,0,*46
1534464359.9,1746,20.56,74326.8,2.79,-10.23,-10.75,0,*46
1534464361.12,1747,20.56,74324.8,2.79,-10.09,-10.67,0,*4C
1534464362.35,1748,20.56,74326.5,2.81,-10.27,-10.93,0,*43
1534464363.54,1749,20.56,74330.8,2.75,-10.27,-10.85,0,*4E
1534464364.76,1750,20.56,74330.8,2.81,-9.97,-10.49,0,*7E
1534464365.98,1751,20.56,74326.8,2.81,-10.05,-10.49,0,*4C
1534464367.23,1752,20.56,74326.8,2.81,-10.09,-10.67,0,*4F
1534464368.49,1753,20.56,74324.0,2.81,-10.19,-10.79,0,*40
1534464369.71,1754,20.56,74328.3,2.83,-10.19,-10.79,0,*45
1534464370.97,1755,20.56,74326.3,2.81,-10.19,-10.75,0,*4A
1534464372.22,1756,20.56,74324.5,2.81,-10.09,-10.67,0,*4B
1534464373.48,1757,20.56,74324.3,2.81,-10.19,-10.75,0,*48
1534464374.73,1758,20.56,74326.8,2.81,-10.09,-10.67,0,*45
1534464375.97,1759,20.56,74330.5,2.81,-10.09,-10.63,0,*40
1534464377.2,1760,20.56,74330.3,2.83,-10.19,-10.75,0,*4E
1534464378.42,1761,20.56,74328.5,2.81,-9.93,-10.35,0,*73
1534464379.68,1762,20.56,74330.8,2.81,-10.19,-10.79,0,*42
1534464380.87,1763,20.56,74324.8,2.83,-10.31,-10.85,0,*48
1534464382.12,1764,20.56,74330.0,2.81,-10.27,-10.79,0,*49
1534464383.35,1765,20.56,74328.3,2.83,-10.19,-10.75,0,*4B
1534464384.58,1766,20.56,74324.0,2.81,-10.27,-10.93,0,*4F
1534464385.77,1767,20.56,74330.5,2.83,-10.23,-10.89,0,*43
1534464387.0,1768,20.56,74326.3,2.81,-10.27,-10.89,0,*4A
1534464388.23,1769,20.56,74326.5,2.81,-10.27,-10.93,0,*40
1534464389.42,1770,20.56,74326.5,2.83,-10.27,-10.93,0,*4A
1534464390.65,1771,20.56,74326.5,2.83,-10.23,-10.79,0,*4B
1534464391.88,1772,20.56,74328.0,2.81,-10.35,-11.01,0,*43
1534464393.11,1773,20.56,74326.0,2.81,-10.35,-10.93,0,*48
1534464394.34,1774,20.56,74326.0,2.81,-10.27,-10.93,0,*4C
1534464395.59,1775,20.56,74326.3,2.81,-10.23,-10.79,0,*4D
1534464396.83,1776,20.56,74328.8,2.81,-10.05,-10.63,0,*41
1534464398.06,1777,20.56,74324.3,2.81,-10.19,-10.89,0,*49
1534464399.32,1778,20.56,74330.5,2.81,-10.41,-10.93,0,*40
1534464400.55,1779,20.56,74326.5,2.81,-10.35,-10.93,0,*42
1534464401.77,1780,20.56,74326.8,2.81,-10.27,-10.89,0,*4C
1534464403.03,1781,20.56,74330.8,2.81,-10.19,-10.67,0,*40
1534464404.29,1782,20.56,74324.8,2.81,-10.19,-10.67,0,*43
1534464405.55,1783,20.56,74326.8,2.81,-10.19,-10.79,0,*4D
1534464406.78,1784,20.56,74326.3,2.81,-10.27,-10.93,0,*43
1534464408.01,1785,20.56,74326.3,2.81,-10.35,-10.89,0,*4A
1534464409.26,1786,20.56,74324.5,2.81,-10.27,-10.79,0,*45
1534464410.51,1787,20.56,74326.8,2.81,-10.09,-10.63,0,*43
1534464411.73,1788,20.56,74326.5,2.81,-9.93,-10.35,0,*74
1534464412.98,1789,20.56,74330.3,2.81,-9.93,-10.41,0,*76
1534464414.23,1790,20.56,74330.3,2.81,-10.19,-10.75,0,*43
1534464415.48,1791,20.56,74326.3,2.81,-10.09,-10.67,0,*40
1534464416.7,1792,20.56,74326.8,2.81,-10.05,-10.53,0,*48
1534464417.95,1793,20.56,74326.3,2.81,-9.83,-10.35,0,*7F
1534464419.17,1794,20.56,74326.8,2.83,-9.93,-10.41,0,*78
1534464420.36,1795,20.56,74328.5,2.83,-10.23,-10.85,0,*42
1534464421.55,1796,20.56,74324.8,2.83,-10.01,-10.49,0,*41
1534464422.8,1797,20.56,74324.5,2.81,-10.09,-10.67,0,*46
1534464424.03,1798,20.56,74324.8,2.83,-10.15,-10.63,0,*42
1534464425.24,1799,20.56,74324.3,2.83,-10.05,-10.63,0,*42
1534464426.47,1800,20.56,74326.5,2.83,-10.23,-10.75,0,*4E
1534464427.66,1801,20.56,74328.5,2.83,-10.23,-10.85,0,*40
1534464428.86,1802,20.56,74326.0,2.83,-10.35,-10.89,0,*48
1534464430.06,1803,20.56,74328.3,2.83,-10.31,-10.89,0,*4D
1534464431.31,1804,20.56,74326.0,2.81,-10.23,-10.79,0,*44
1534464432.54,1805,20.56,74330.0,2.81,-10.35,-10.93,0,*46
1534464433.8,1806,20.56,74326.3,2.81,-10.19,-10.75,0,*43
1534464435.05,1807,20.56,74324.3,2.81,-10.19,-10.79,0,*4E
1534464436.31,1808,20.56,74326.0,2.81,-10.19,-10.79,0,*41
1534464437.54,1809,20.56,74324.8,2.81,-10.35,-10.93,0,*4A
1534464438.77,1810,20.56,74324.5,2.81,-10.27,-10.89,0,*4A
1534464439.99,1811,20.56,74324.3,2.81,-10.27,-10.89,0,*4B
1534464441.22,1812,20.56,74328.5,2.81,-10.35,-10.89,0,*4B
1534464442.41,1813,20.56,74328.3,2.83,-10.31,-10.85,0,*40
1534464443.61,1814,20.56,74324.5,2.83,-10.31,-10.89,0,*4B
1534464444.84,1815,20.56,74330.0,2.81,-10.35,-10.93,0,*47
1534464446.09,1816,20.56,74326.5,2.81,-10.49,-11.07,0,*43
1534464447.32,1817,20.56,74326.3,2.81,-10.35,-11.01,0,*4F
1534464448.55,1818,20.56,74324.3,2.81,-10.23,-10.89,0,*46
1534464449.77,1819,20.56,74328.5,2.81,-10.27,-10.93,0,*48
1534464451.03,1820,20.56,74328.5,2.81,-10.23,-10.67,0,*4D
1534464452.28,1821,20.56,74326.3,2.81,-10.05,-10.63,0,*4C
1534464453.53,1822,20.56,74324.0,2.81,-10.23,-10.75,0,*4C
1534464454.78,1823,20.56,74328.8,2.81,-10.27,-10.79,0,*45
1534464456.01,1824,20.56,74326.5,2.81,-10.27,-10.89,0,*4D
1534464457.26,1825,20.56,74328.0,2.81,-10.09,-10.63,0,*44
1534464458.52,1826,20.56,74330.3,2.81,-10.19,-10.67,0,*42
1534464459.75,1827,20.56,74326.8,2.79,-10.19,-10.67,0,*44
1534464460.95,1828,20.56,74326.3,2.79,-10.35,-10.89,0,*45
1534464462.21,1829,20.56,74326.3,2.81,-10.27,-10.79,0,*4F
1534464463.46,1830,20.56,74326.3,2.81,-10.23,-10.67,0,*4C
1534464464.72,1831,20.56,74324.8,2.81,-10.19,-10.75,0,*47
1534464465.97,1832,20.56,74326.5,2.81,-10.41,-10.93,0,*41
1534464467.23,1833,20.56,74324.5,2.81,-10.41,-11.01,0,*4A
1534464468.46,1834,20.56,74324.5,2.81,-10.35,-10.93,0,*44
1534464469.71,1835,20.56,74330.0,2.81,-10.23,-10.75,0,*4A
1534464470.94,1836,20.56,74330.3,2.81,-10.27,-10.89,0,*4E
1534464472.19,1837,20.56,74330.0,2.81,-10.41,-11.01,0,*4E
1534464473.41,1838,20.56,74328.8,2.81,-10.09,-10.53,0,*4B
1534464474.65,1839,20.56,74328.3,2.81,-9.83,-10.35,0,*70
1534464475.91,1840,20.56,74328.5,2.81,-10.19,-10.63,0,*46
1534464477.16,1841,20.56,74330.5,2.81,-10.41,-10.89,0,*4E
1534464478.42,1842,20.56,74328.5,2.81,-10.09,-10.67,0,*41
1534464479.63,1843,20.56,74328.3,2.81,-10.09,-10.49,0,*4C
1534464480.89,1844,20.56,74330.0,2.81,-10.05,-10.67,0,*4B
1534464482.13,1845,20.56,74324.8,2.81,-9.83,-10.35,0,*7B
1534464483.35,1846,20.5,74324.0,2.81,-10.05,-10.49,0,*45
1534464484.57,1847,20.56,74330.3,2.81,-10.09,-10.53,0,*43
1534464485.76,1848,20.56,74328.5,2.83,-10.05,-10.49,0,*49
1534464486.98,1849,20.56,74328.0,2.81,-10.05,-10.53,0,*41
1534464488.2,1850,20.56,74328.8,2.81,-10.05,-10.49,0,*42
1534464489.39,1851,20.5,74326.3,2.83,-10.05,-10.53,0,*4A
1534464490.58,1852,20.56,74328.0,2.83,-9.93,-10.35,0,*7E
1534464491.84,1853,20.56,74330.0,2.81,-10.19,-10.75,0,*43
1534464493.06,1854,20.56,74328.0,2.83,-10.19,-10.71,0,*42
1534464494.29,1855,20.5,74324.0,2.83,-10.19,-10.71,0,*43
1534464495.52,1856,20.56,74326.8,2.83,-10.19,-10.75,0,*44
1534464496.77,1857,20.56,74328.5,2.81,-10.23,-10.75,0,*4E
1534464498.02,1858,20.56,74326.8,2.81,-10.09,-10.63,0,*4E
1534464499.22,1859,20.5,74324.3,2.83,-9.79,-10.35,0,*71
1534464500.46,1860,20.56,74328.0,2.81,-10.05,-10.63,0,*49
1534464501.65,1861,20.56,74330.8,2.83,-9.93,-10.49,0,*75
1534464502.84,1862,20.56,74328.8,2.83,-9.89,-10.35,0,*76
1534464504.06,1863,20.56,74328.0,2.81,-9.97,-10.53,0,*7A
1534464505.25,1864,20.56,74330.3,2.83,-9.79,-10.31,0,*7B
1534464506.45,1865,20.56,74330.3,2.83,-9.75,-10.19,0,*7C
1534464507.65,1866,20.56,74330.8,2.83,-9.79,-10.31,0,*79
1534464508.84,1867,20.56,74328.3,2.83,-10.01,-10.45,0,*4C